+ View the NASA Portal
+ Center for Near-Earth Object Studies
IMPORTANT:
The SSD Announcement email list is now available. Major changes are coming in the near future, including possible hostname and/or URL changes. To be notified of such changes, subscribe to this email list.
Please visit
this page
for more details.
Don't show this message again
JPL Small-Body Database Browser
Search:
[
help
]
413766 (2006 DD215)
Classification:
Main-belt Asteroid
SPK-ID:
2413766
[
Ephemeris
|
Orbit Diagram
|
Orbital Elements
|
Mission Design
|
Physical Parameters
|
Discovery Circumstances
|
Close-Approach Data
]
[ show orbit diagram ]
Orbital Elements at Epoch 2458600.5 (2019-Apr-27.0) TDB
Reference:
JPL 9
(heliocentric ecliptic J2000)
Element
Value
Uncertainty (1-sigma)
Units
e
.09176257410607626
6.5378e-08
a
3.037362988615551
5.4788e-08
au
q
2.758646742285663
2.1864e-07
au
i
9.505383255289615
1.0677e-05
deg
node
357.4923836592131
4.309e-05
deg
peri
86.05297357360206
8.791e-05
deg
M
250.8717570777672
7.0896e-05
deg
t
p
2459186.608653747027
(2020-Dec-03.10865375)
0.00038268
TDB
period
1933.496862945848
5.29
5.2315e-05
1.432e-07
d
yr
n
.1861911477071181
5.0378e-09
deg/d
Q
3.316079234945439
5.9816e-08
au
Orbit Determination Parameters
# obs. used (total)
186
data-arc span
5841 days (15.99 yr)
first obs. used
2003-09-21
last obs. used
2019-09-18
planetary ephem.
DE431
SB-pert. ephem.
SB431-N16
condition code
0
norm. resid. RMS
.46382
source
ORB
producer
Otto Matic
solution date
2019-Nov-08 14:38:52
Additional Information
Earth MOID
= 1.79528 au
Jupiter MOID
= 1.9022 au
T_jup
= 3.214
[ show covariance matrix ]
[
Ephemeris
|
Orbit Diagram
|
Orbital Elements
|
Mission Design
|
Physical Parameters
|
Discovery Circumstances
|
Close-Approach Data
]
Physical Parameter Table
Parameter
Symbol
Value
Units
Sigma
Reference
Notes
absolute magnitude
H
16.6
n/a
MPO368782
413766 (2006 DD215)
Discovered 2006-Feb-20 by Spacewatch at Kitt Peak
Reference:
Last Updated:
2014-11-10
[ show close-approach data ]
[
Ephemeris
|
Orbit Diagram
|
Orbital Elements
|
Mission Design
|
Physical Parameters
|
Discovery Circumstances
|
Close-Approach Data
]
2019-Dec-14 16:27 UT
(server date/time)
Site Manager:
Ryan S. Park
Webmaster
:
Alan B. Chamberlin